TimeAEST,TemperatureF,Dew PointF,Humidity,Sea Level PressureIn,VisibilityMPH,Wind Direction,Wind SpeedMPH,Gust SpeedMPH,PrecipitationIn,Events,Conditions,WindDirDegrees,DateUTC
12:00 AM,73,69,82,29.99,,South,13.8,,,,Overcast,180,2013-04-04 14:00:00
12:00 AM,73.4,68.0,83,29.98,6.2,South,13.8,-,N/A,,Mostly Cloudy,180,2013-04-04 14:00:00
12:30 AM,75.2,68.0,78,29.98,6.2,South,11.5,-,N/A,,Mostly Cloudy,170,2013-04-04 14:30:00
1:00 AM,74,69,78,29.97,,SE,10.4,,,,,130,2013-04-04 15:00:00
1:00 AM,73.4,68.0,83,29.95,6.2,SE,10.4,-,N/A,,Scattered Clouds,130,2013-04-04 15:00:00
1:30 AM,75.2,68.0,78,29.95,6.2,SSE,9.2,-,N/A,,Mostly Cloudy,160,2013-04-04 15:30:00
2:00 AM,75.2,68.0,78,29.95,6.2,SSE,10.4,-,N/A,,Scattered Clouds,160,2013-04-04 16:00:00
2:30 AM,75.2,68.0,78,29.92,6.2,SSE,10.4,-,N/A,,Scattered Clouds,160,2013-04-04 16:30:00
3:00 AM,75,67,71,29.93,,SSE,12.7,,,,,160,2013-04-04 17:00:00
3:00 AM,75.2,68.0,78,29.92,6.2,SSE,12.7,-,N/A,,Scattered Clouds,160,2013-04-04 17:00:00
3:30 AM,75.2,66.2,73,29.92,6.2,SSE,10.4,-,N/A,,Scattered Clouds,150,2013-04-04 17:30:00
4:00 AM,75,67,71,29.93,,SSE,10.4,,,,,160,2013-04-04 18:00:00
4:00 AM,75.2,68.0,78,29.92,6.2,SSE,10.4,-,N/A,,Scattered Clouds,160,2013-04-04 18:00:00
4:30 AM,75.2,68.0,78,29.92,6.2,SSE,10.4,-,N/A,,Scattered Clouds,160,2013-04-04 18:30:00
5:00 AM,75.2,68.0,78,29.92,6.2,SSE,10.4,-,N/A,,Scattered Clouds,160,2013-04-04 19:00:00
5:30 AM,77.0,66.2,69,29.92,6.2,South,10.4,-,N/A,,Scattered Clouds,170,2013-04-04 19:30:00
6:00 AM,76,67,68,29.95,19,South,10.4,,,,Partly Cloudy,170,2013-04-04 20:00:00
6:00 AM,75.2,68.0,78,29.95,6.2,South,10.4,-,N/A,,Partly Cloudy,170,2013-04-04 20:00:00
6:30 AM,75.2,68.0,78,29.95,6.2,SSE,12.7,-,N/A,Rain,Light Rain Showers,160,2013-04-04 20:30:00
7:00 AM,76,68,70,29.98,,SSE,10.4,,,,,160,2013-04-04 21:00:00
7:00 AM,75.2,68.0,78,29.98,6.2,SSE,10.4,-,N/A,,Scattered Clouds,160,2013-04-04 21:00:00
7:30 AM,77.0,68.0,74,29.98,6.2,South,10.4,-,N/A,,Scattered Clouds,170,2013-04-04 21:30:00
8:00 AM,77.0,68.0,74,29.98,6.2,South,12.7,-,N/A,,Scattered Clouds,190,2013-04-04 22:00:00
8:30 AM,77.0,68.0,74,29.98,6.2,South,12.7,-,N/A,,Scattered Clouds,180,2013-04-04 22:30:00
9:00 AM,79,69,65,30.01,12,South,11.5,,,,Mostly Cloudy,180,2013-04-04 23:00:00
9:00 AM,78.8,69.8,74,30.01,6.2,South,11.5,-,N/A,,Scattered Clouds,180,2013-04-04 23:00:00
9:30 AM,78.8,69.8,74,30.01,6.2,South,13.8,-,N/A,,Scattered Clouds,180,2013-04-04 23:30:00
10:00 AM,79,70,66,30.02,,South,11.5,,,,,190,2013-04-05 00:00:00
10:00 AM,78.8,69.8,74,30.01,6.2,South,11.5,-,N/A,,Scattered Clouds,190,2013-04-05 00:00:00
10:30 AM,78.8,71.6,78,30.01,6.2,SSE,11.5,-,N/A,,Mostly Cloudy,150,2013-04-05 00:30:00
11:00 AM,77.0,71.6,83,30.01,6.2,South,8.1,-,N/A,Rain,Light Rain Showers,170,2013-04-05 01:00:00
11:30 AM,77.0,73.4,89,29.98,6.2,SSE,10.4,-,N/A,,Mostly Cloudy,150,2013-04-05 01:30:00
12:00 PM,77,71,76,29.99,12,South,13.8,,,,Partly Cloudy,170,2013-04-05 02:00:00
12:00 PM,77.0,71.6,83,29.98,6.2,South,13.8,-,N/A,,Mostly Cloudy,170,2013-04-05 02:00:00
12:24 PM,75,70,80,29.98,,South,17.3,,,,Overcast,170,2013-04-05 02:24:00
12:25 PM,75.2,69.8,83,29.98,3.1,South,17.3,-,N/A,Rain,Light Rain Showers,170,2013-04-05 02:25:00
12:30 PM,73.4,71.6,94,29.98,3.7,South,17.3,-,N/A,Rain,Light Rain Showers,170,2013-04-05 02:30:00
12:46 PM,75.2,69.8,83,29.95,6.2,SSW,9.2,-,N/A,,Mostly Cloudy,210,2013-04-05 02:46:00
1:00 PM,75,69,78,29.97,,South,11.5,,,,,190,2013-04-05 03:00:00
1:00 PM,75.2,69.8,83,29.95,6.2,South,11.5,-,N/A,,Mostly Cloudy,190,2013-04-05 03:00:00
1:30 PM,77.0,68.0,74,29.95,6.2,South,11.5,-,N/A,,Mostly Cloudy,190,2013-04-05 03:30:00
2:00 PM,80.6,71.6,74,29.92,6.2,South,9.2,-,N/A,,Mostly Cloudy,170,2013-04-05 04:00:00
2:30 PM,77.0,71.6,83,29.92,6.2,South,15.0,-,N/A,Rain,Light Rain Showers,170,2013-04-05 04:30:00
3:00 PM,77,71,75,29.93,12,South,9.2,,,Rain,Light Rain Showers,190,2013-04-05 05:00:00
3:00 PM,77.0,69.8,78,29.92,6.2,South,9.2,-,N/A,Rain,Light Rain Showers,190,2013-04-05 05:00:00
3:30 PM,78.8,71.6,78,29.92,6.2,South,10.4,-,N/A,,Scattered Clouds,180,2013-04-05 05:30:00
4:00 PM,79,68,62,29.93,,SSE,17.3,,,,,150,2013-04-05 06:00:00
4:00 PM,78.8,68.0,69,29.92,6.2,SSE,17.3,-,N/A,,Scattered Clouds,150,2013-04-05 06:00:00
4:30 PM,80.6,68.0,65,29.92,6.2,SSE,13.8,-,N/A,,Scattered Clouds,150,2013-04-05 06:30:00
5:00 PM,78.8,68.0,69,29.92,6.2,South,13.8,-,N/A,,Scattered Clouds,170,2013-04-05 07:00:00
5:30 PM,77.0,69.8,78,29.92,6.2,South,10.4,-,N/A,,Scattered Clouds,180,2013-04-05 07:30:00
6:00 PM,77,69,70,29.94,,South,13.8,,,,,170,2013-04-05 08:00:00
6:00 PM,77.0,69.8,78,29.92,6.2,South,13.8,-,N/A,,Scattered Clouds,170,2013-04-05 08:00:00
6:30 PM,77.0,68.0,74,29.95,6.2,South,12.7,-,N/A,,Scattered Clouds,170,2013-04-05 08:30:00
7:00 PM,74,70,83,29.96,,South,12.7,,,,,170,2013-04-05 09:00:00
7:00 PM,73.4,69.8,88,29.95,3.7,South,12.7,25.3,N/A,Rain,Light Rain Showers,170,2013-04-05 09:00:00
7:30 PM,73.4,69.8,88,29.95,6.2,South,13.8,-,N/A,,Scattered Clouds,190,2013-04-05 09:30:00
8:00 PM,73.4,69.8,88,29.98,5.6,South,13.8,-,N/A,Rain,Light Rain Showers,170,2013-04-05 10:00:00
8:30 PM,73.4,69.8,88,29.98,6.2,SSE,16.1,-,N/A,,Overcast,160,2013-04-05 10:30:00
9:00 PM,73,68,78,29.98,,South,12.7,,,,Overcast,180,2013-04-05 11:00:00
9:00 PM,73.4,68.0,83,29.98,6.2,South,12.7,-,N/A,,Mostly Cloudy,180,2013-04-05 11:00:00
10:00 PM,74,65,66,29.98,,South,11.5,,,,,170,2013-04-05 12:00:00
10:00 PM,75.2,64.4,69,29.98,6.2,South,11.5,-,N/A,,Partly Cloudy,170,2013-04-05 12:00:00
10:30 PM,73.4,66.2,78,29.95,6.2,SSE,10.4,-,N/A,,Overcast,160,2013-04-05 12:30:00
11:00 PM,75.2,66.2,73,29.95,5.6,South,10.4,-,N/A,Rain,Light Rain Showers,170,2013-04-05 13:00:00
11:30 PM,71.6,69.8,94,29.95,6.2,SE,10.4,-,N/A,,Overcast,140,2013-04-05 13:30:00